Regional Weather Roundup
Issued by NWS

Home | Current Version | Previous Version | Graphics & Text | Print | Product List | Glossary On
Versions: 1 2 3 4 5 6 7 8 9 10 11 12 13 14 15 16 17 18 19 20 21 22 23 24 25 26 27 28 29 30 31 32 33 34 35 36 37 38 39 40 41 42 43 44 45 46 47 48 49 50
000
ASUS45 KBOU 191710
RWRCO

WEATHER ROUNDUP FOR COLORADO
NATIONAL WEATHER SERVICE DENVER/BOULDER CO
1000 AM MST SUN NOV 19 2017

NOTE: "FAIR" INDICATES FEW OR NO CLOUDS BELOW 12000 FEET WITH NO
SIGNIFICANT WEATHER AND/OR OBSTRUCTIONS TO VISIBILITY.

COZ001>005-013-030-031-191800-
...NORTHWEST COLORADO...

CITY           SKY/WX    TMP DP  RH WIND       PRES   REMARKS
CRAIG          FAIR      22  16  78 SW6       30.30F WCI  14
HAYDEN         FAIR      23  14  68 E9        30.31F WCI  13
MEEKER         FAIR      21  13  71 CALM      30.30F
RABBIT EARS PA FAIR      27   9  46 SW6       30.29S WCI  20
STEAMBOAT SPGS FAIR      19  12  73 CALM      30.31S
WALDEN         FAIR      27  12  54 SW5       30.27S WCI  21
$$

COZ006>008-011-191800-
...WEST CENTRAL VALLEYS...

CITY           SKY/WX    TMP DP  RH WIND       PRES   REMARKS
GRAND JUNCTION FAIR      34  18  52 S5        30.37F WCI  30
MONTROSE       FAIR      31  18  58 CALM      30.39F
EAGLE          FAIR      20  12  71 CALM      30.41F
RIFLE          FAIR      26  16  65 CALM      30.37F
DELTA          FAIR      32  17  54 CALM      30.39F
NUCLA          FAIR      30  10  43 CALM      30.41S
$$

COZ017>023-064>068-191800-
...SOUTHWEST COLORADO...

CITY           SKY/WX    TMP DP  RH WIND       PRES   REMARKS
DURANGO        FAIR      33  16  49 CALM      30.34F
CORTEZ         FAIR      35  13  40 CALM      30.35F
PAGOSA SPRINGS FAIR      36  12  36 CALM      30.34F
TELLURIDE      FAIR      34   7  32 CALM      30.36F
WOLF CREEK PAS FAIR      32  -2  23 S6        30.43F WCI  26
$$

COZ009-010-012-014-032>034-037-058>063-191800-
...CENTRAL COLORADO...

CITY           SKY/WX    TMP DP  RH WIND       PRES   REMARKS
ASPEN          FAIR      26  16  65 NW3       30.30F
BUENA VISTA    FAIR      33  10  38 W5        30.31F WCI  29
COPPER MTN     FAIR      28  -2  26 S5        30.34F WCI  23
BERTHOUD PASS  FAIR      19   9  63 NW23G32   30.31S WCI   2
COTTONWOOD PAS FAIR      36  10  35 CALM      30.32S
GUNNISON       FAIR      18  10  71 CALM      30.44F
KREMMLING      FAIR      23  14  68 CALM      30.38F
LEADVILLE      FAIR      22   8  55 CALM      30.31S
MONARCH PASS   FAIR      21  -4  33 W24G30    30.45S WCI   4
SALIDA         FAIR      33  12  42 NW3       30.39F
SUNLIGHT       FAIR      27   0  31 SW8       30.37F WCI  18
WILKERSON PASS FAIR      27  -8  22 W13G23    30.31S WCI  16
$$

COZ069>075-191800-
...SAN LUIS VALLEY/SANGRE DE CRISTO MOUNTAINS...

CITY           SKY/WX    TMP DP  RH WIND       PRES   REMARKS
ALAMOSA        FAIR      28  13  53 CALM      30.36F
DEL NORTE      FAIR      33   6  32 SW5       30.36S WCI  28
LA VETA PASS   FAIR      28   9  43 SW26G32     N/A  WCI  13
SAGUACHE       FAIR      32   3  29 NW12      30.36S WCI  23
$$

COZ035-036-038>040-191800-
...NORTHERN COLORADO FRONT RANGE...

CITY           SKY/WX    TMP DP  RH WIND       PRES   REMARKS
DENVER INTL AP PTSUNNY   43  21  41 SE7       30.12F
DMNS CITY PARK   N/A     46  12  25 SE8       30.12S
AURORA         PTSUNNY   46  14  27 S12       30.13F
FRONT RANGE AP PTSUNNY   46  21  36 S9G16     30.13F
ERIE MUNI ARPT FAIR      34  24  67 N6        30.17F WCI  29
BOULDER MUN AP FAIR      39  21  48 NE5       30.10F
CENTENNIAL     PTSUNNY   48  13  24 SW12      30.13F
BROOMFIELD     PTSUNNY   39  19  45 SW3       30.12F
FORT COLLINS   FAIR      36  23  59 VRB3      30.13F
LONGMONT       FAIR      42  25  49 E3        30.13F
$$

COZ041-046-047-076>085-087-088-191800-
...PIKES PEAK/PALMER DIVIDE AND SOUTHERN FOOTHILLS...

CITY           SKY/WX    TMP DP  RH WIND       PRES   REMARKS
COLO. SPRINGS  PTSUNNY   50   9  19 E3        30.18F
A. F. ACADEMY  FAIR      51  11  20 S3        30.17F
SCHRIEVER AFB  FAIR      50   2  14 S6        30.18F
CHEYENNE MTN   FAIR      44  11  25 CALM      30.13F
ELLICOTT       NOT AVBL
FALCON         FAIR      50   0  13 S6        30.20F
FORT CARSON    FAIR      45  17  32 CALM      30.17F
LIMON          FAIR      41  24  51 N3        30.16F
MONUMENT HILL  FAIR      45  12  26 SW10G16   30.19F
CANON CITY     SUNNY     54   9  16 W12       30.18F
WALSENBURG     FAIR      55   9  15 W12G18    30.19F
TRINIDAD       FAIR      48  12  23 S6        30.21F
$$

COZ042>045-048>051-090-091-191800-
...NORTHEAST COLORADO...

CITY           SKY/WX    TMP DP  RH WIND       PRES   REMARKS
GREELEY ARPT   FAIR      33  23  66 SW3       30.14F
AKRON          FAIR      42  18  37 SW9       30.12F
BURLINGTON     FAIR      49  19  30 SW12      30.15F
WRAY           NOT AVBL
YUMA           FAIR      43  25  49 SW6       30.12F
STERLING       FAIR      36  23  60 SW9       30.12F
HOLYOKE        FAIR      50  27  40 W5        30.11F
FORT MORGAN    FAIR      35  20  54 SW7       30.13F WCI  29
$$

COZ086-089-092>099-191800-
...SOUTHEAST COLORADO...

CITY           SKY/WX    TMP DP  RH WIND       PRES   REMARKS
PUEBLO         FAIR      41  25  53 CALM      30.18F
LA JUNTA       FAIR      42  23  46 W7        30.19F
LAMAR          FAIR      45  21  38 W10       30.19F
SPRINGFIELD      N/A     54  18  24 W5        30.18F
$$



USA.gov is the U.S. government's official web portal to all federal, state and local government web resources and services.